N3572M SKVV-SKVV

Flight info

Callsign N3572M
Flight time 0h 57m
Altitude 3500
Route DCT ACACIAS DCT GUAMAL DCT CUBARRAL DCT SAN MARTIN DCT ACACIAS DCT VILLAVICENCIO DCT
Aircraft P28A/L-S/C

Departure

Time 2026-05-06 22:01
Airport Vanguardia Airport (SKVV)

Arrival

Time 2026-05-06 22:58
Airport Vanguardia Airport (SKVV)
Time Latitude Longitude Altitude Speed Heading
2026-05-06 21:18 4.17085 -73.61285 1435 ft 0 kts 212°
2026-05-06 21:38 4.17077 -73.61289 1436 ft 4 kts 206°
2026-05-06 21:38 4.17021 -73.61312 1437 ft 10 kts 211°
2026-05-06 21:39 4.16963 -73.61358 1439 ft 9 kts 224°
2026-05-06 21:39 4.16911 -73.61401 1441 ft 10 kts 219°
2026-05-06 21:39 4.16851 -73.61449 1442 ft 11 kts 219°
2026-05-06 21:39 4.16792 -73.61498 1444 ft 11 kts 219°
2026-05-06 21:40 4.16735 -73.61543 1447 ft 9 kts 218°
2026-05-06 21:40 4.16677 -73.61586 1448 ft 11 kts 221°
2026-05-06 21:40 4.16613 -73.61640 1450 ft 12 kts 217°
2026-05-06 21:40 4.16545 -73.61696 1452 ft 13 kts 218°
2026-05-06 21:41 4.16477 -73.61751 1454 ft 10 kts 218°
2026-05-06 21:41 4.16415 -73.61801 1455 ft 12 kts 219°
2026-05-06 21:41 4.16346 -73.61857 1455 ft 8 kts 215°
2026-05-06 21:41 4.16306 -73.61883 1456 ft 1 kts 252°
2026-05-06 21:42 4.16305 -73.61887 1456 ft 0 kts 256°
2026-05-06 21:46 4.16303 -73.61891 1457 ft 2 kts 247°
2026-05-06 21:46 4.16280 -73.61910 1458 ft 6 kts 213°
2026-05-06 21:46 4.16232 -73.61888 1456 ft 12 kts 127°
2026-05-06 21:46 4.16225 -73.61835 1454 ft 10 kts 28°
2026-05-06 21:47 4.16245 -73.61819 1453 ft 0 kts 39°
2026-05-06 21:59 4.16258 -73.61810 1454 ft 5 kts 30°
2026-05-06 22:00 4.16280 -73.61794 1454 ft 13 kts 37°
2026-05-06 22:00 4.16508 -73.61605 1450 ft 65 kts 45°
2026-05-06 22:00 4.16904 -73.61277 1538 ft 76 kts 33°
2026-05-06 22:00 4.17317 -73.60926 1688 ft 76 kts 38°
2026-05-06 22:01 4.17733 -73.60591 1813 ft 79 kts 38°
2026-05-06 22:01 4.18130 -73.60228 1952 ft 80 kts 45°
2026-05-06 22:01 4.18543 -73.59823 2067 ft 84 kts 42°
2026-05-06 22:01 4.18959 -73.59375 2185 ft 89 kts 65°
2026-05-06 22:02 4.18853 -73.58801 2347 ft 89 kts 121°
2026-05-06 22:02 4.18393 -73.58403 2460 ft 95 kts 174°
2026-05-06 22:02 4.17784 -73.58685 2558 ft 100 kts 215°
2026-05-06 22:02 4.17182 -73.59034 2677 ft 102 kts 205°
2026-05-06 22:03 4.16519 -73.59360 2729 ft 109 kts 208°
2026-05-06 22:03 4.15853 -73.59764 2849 ft 106 kts 208°
2026-05-06 22:03 4.15229 -73.60088 3054 ft 98 kts 203°
2026-05-06 22:03 4.14630 -73.60387 3231 ft 94 kts 201°
2026-05-06 22:04 4.14018 -73.60624 3420 ft 88 kts 194°
2026-05-06 22:04 4.13435 -73.60834 3544 ft 91 kts 202°
2026-05-06 22:04 4.12843 -73.61076 3667 ft 94 kts 195°
2026-05-06 22:04 4.12218 -73.61253 3690 ft 98 kts 194°
2026-05-06 22:05 4.11566 -73.61522 3699 ft 104 kts 207°
2026-05-06 22:05 4.10955 -73.61933 3701 ft 108 kts 207°
2026-05-06 22:05 4.10285 -73.62286 3704 ft 110 kts 214°
2026-05-06 22:05 4.09706 -73.62807 3704 ft 112 kts 227°
2026-05-06 22:06 4.09178 -73.63388 3700 ft 113 kts 228°
2026-05-06 22:06 4.08640 -73.63984 3697 ft 115 kts 228°
2026-05-06 22:06 4.08098 -73.64582 3695 ft 115 kts 228°
2026-05-06 22:06 4.07570 -73.65165 3703 ft 110 kts 228°
2026-05-06 22:07 4.07065 -73.65721 3713 ft 105 kts 227°
2026-05-06 22:07 4.06584 -73.66258 3719 ft 102 kts 228°
2026-05-06 22:07 4.06110 -73.66787 3716 ft 100 kts 227°
2026-05-06 22:07 4.05644 -73.67306 3713 ft 100 kts 228°
2026-05-06 22:08 4.05178 -73.67825 3714 ft 98 kts 227°
2026-05-06 22:08 4.04721 -73.68333 3720 ft 97 kts 227°
2026-05-06 22:08 4.04269 -73.68833 3717 ft 97 kts 228°
2026-05-06 22:08 4.03812 -73.69339 3708 ft 98 kts 228°
2026-05-06 22:09 4.03351 -73.69848 3713 ft 97 kts 227°
2026-05-06 22:09 4.02898 -73.70346 3724 ft 95 kts 228°
2026-05-06 22:09 4.02453 -73.70838 3739 ft 93 kts 227°
2026-05-06 22:09 4.02024 -73.71315 3755 ft 92 kts 227°
2026-05-06 22:10 4.01587 -73.71802 3762 ft 93 kts 227°
2026-05-06 22:10 4.01146 -73.72297 3749 ft 96 kts 227°
2026-05-06 22:10 4.00698 -73.72804 3736 ft 98 kts 227°
2026-05-06 22:10 4.00226 -73.73299 3727 ft 98 kts 219°
2026-05-06 22:11 3.99648 -73.73656 3723 ft 96 kts 199°
2026-05-06 22:11 3.99026 -73.73901 3727 ft 96 kts 198°
2026-05-06 22:11 3.98404 -73.74133 3743 ft 94 kts 197°
2026-05-06 22:11 3.97786 -73.74360 3753 ft 94 kts 198°
2026-05-06 22:12 3.97161 -73.74591 3755 ft 96 kts 198°
2026-05-06 22:12 3.96523 -73.74827 3739 ft 99 kts 198°
2026-05-06 22:12 3.95863 -73.75070 3733 ft 99 kts 198°
2026-05-06 22:12 3.95223 -73.75304 3741 ft 98 kts 197°
2026-05-06 22:13 3.94575 -73.75543 3756 ft 97 kts 198°
2026-05-06 22:13 3.94175 -73.75691 3768 ft 96 kts 197°
2026-05-06 22:13 3.93529 -73.75929 3768 ft 99 kts 197°
2026-05-06 22:13 3.92876 -73.76172 3762 ft 101 kts 197°
2026-05-06 22:14 3.92211 -73.76415 3763 ft 101 kts 197°
2026-05-06 22:14 3.91543 -73.76660 3762 ft 101 kts 197°
2026-05-06 22:14 3.90881 -73.76901 3764 ft 101 kts 197°
2026-05-06 22:14 3.90204 -73.77151 3767 ft 103 kts 198°
2026-05-06 22:15 3.89529 -73.77394 3787 ft 103 kts 197°
2026-05-06 22:15 3.88845 -73.77644 3810 ft 103 kts 197°
2026-05-06 22:15 3.88171 -73.77888 3821 ft 104 kts 197°
2026-05-06 22:15 3.87483 -73.78136 3836 ft 104 kts 197°
2026-05-06 22:16 3.86789 -73.78383 3834 ft 107 kts 198°
2026-05-06 22:16 3.86068 -73.78638 3825 ft 109 kts 197°
2026-05-06 22:16 3.85357 -73.78891 3818 ft 108 kts 198°
2026-05-06 22:16 3.84665 -73.79202 3631 ft 109 kts 210°
2026-05-06 22:17 3.84056 -73.79650 3448 ft 109 kts 220°
2026-05-06 22:17 3.83456 -73.80144 3237 ft 109 kts 221°
2026-05-06 22:17 3.83292 -73.80759 3130 ft 93 kts 295°
2026-05-06 22:17 3.83720 -73.81157 2983 ft 83 kts 349°
2026-05-06 22:18 3.84279 -73.81208 2820 ft 79 kts
2026-05-06 22:18 3.84824 -73.81114 2716 ft 82 kts 15°
2026-05-06 22:18 3.85452 -73.81003 2671 ft 96 kts
2026-05-06 22:18 3.86113 -73.80960 2747 ft 92 kts
2026-05-06 22:19 3.86762 -73.80986 2778 ft 94 kts
2026-05-06 22:19 3.87317 -73.81270 2833 ft 98 kts 293°
2026-05-06 22:19 3.87054 -73.81831 2909 ft 97 kts 209°
2026-05-06 22:19 3.86391 -73.82038 2897 ft 103 kts 200°
2026-05-06 22:20 3.85771 -73.82395 2959 ft 104 kts 207°
2026-05-06 22:20 3.85108 -73.82349 2957 ft 100 kts 135°
2026-05-06 22:20 3.84583 -73.81831 2846 ft 111 kts 131°
2026-05-06 22:20 3.83969 -73.81400 2851 ft 103 kts 173°
2026-05-06 22:21 3.83372 -73.81794 2799 ft 108 kts 229°
2026-05-06 22:21 3.82856 -73.82365 2745 ft 109 kts 229°
2026-05-06 22:21 3.82207 -73.82682 2769 ft 100 kts 172°
2026-05-06 22:21 3.81708 -73.82306 2814 ft 91 kts 110°
2026-05-06 22:22 3.81778 -73.81677 2759 ft 98 kts 59°
2026-05-06 22:22 3.82294 -73.81328 2844 ft 91 kts
2026-05-06 22:22 3.82879 -73.81567 2872 ft 98 kts 314°
2026-05-06 22:22 3.83315 -73.82148 2855 ft 103 kts 309°
2026-05-06 22:23 3.83808 -73.82634 2878 ft 99 kts 341°
2026-05-06 22:23 3.84423 -73.82552 2927 ft 93 kts 40°
2026-05-06 22:23 3.84672 -73.81962 2910 ft 95 kts 93°
2026-05-06 22:23 3.84367 -73.81381 2929 ft 97 kts 140°
2026-05-06 22:24 3.83681 -73.81173 2823 ft 112 kts 181°
2026-05-06 22:24 3.83031 -73.81556 2837 ft 110 kts 227°
2026-05-06 22:24 3.82547 -73.82146 2834 ft 111 kts 233°
2026-05-06 22:24 3.82099 -73.82778 2854 ft 109 kts 233°
2026-05-06 22:25 3.81538 -73.83255 2973 ft 103 kts 203°
2026-05-06 22:25 3.80893 -73.83234 3182 ft 89 kts 146°
2026-05-06 22:25 3.80571 -73.82752 3337 ft 84 kts 102°
2026-05-06 22:25 3.80763 -73.82196 3364 ft 95 kts 37°
2026-05-06 22:26 3.81331 -73.81850 3453 ft 97 kts 30°
2026-05-06 22:26 3.81953 -73.81585 3411 ft 102 kts
2026-05-06 22:26 3.82632 -73.81723 3485 ft 94 kts 352°
2026-05-06 22:26 3.83281 -73.81860 3475 ft 98 kts 348°
2026-05-06 22:27 3.83967 -73.82027 3435 ft 101 kts 352°
2026-05-06 22:27 3.84646 -73.82147 3423 ft 100 kts 351°
2026-05-06 22:27 3.85315 -73.82275 3386 ft 96 kts 353°
2026-05-06 22:27 3.85835 -73.82087 3400 ft 91 kts 90°
2026-05-06 22:28 3.85397 -73.82134 3439 ft 103 kts 285°
2026-05-06 22:28 3.85981 -73.82433 3487 ft 97 kts 353°
2026-05-06 22:28 3.85941 -73.82843 3381 ft 112 kts 150°
2026-05-06 22:28 3.86263 -73.82478 3475 ft 99 kts 354°
2026-05-06 22:29 3.86941 -73.82598 3436 ft 99 kts 355°
2026-05-06 22:29 3.87606 -73.82679 3406 ft 89 kts 360°
2026-05-06 22:29 3.88179 -73.82726 3416 ft 76 kts
2026-05-06 22:29 3.88691 -73.82800 3390 ft 70 kts 353°
2026-05-06 22:30 3.89118 -73.82894 3398 ft 57 kts 348°
2026-05-06 22:30 3.89512 -73.82929 3365 ft 56 kts 351°
2026-05-06 22:30 3.89900 -73.82999 3367 ft 55 kts 354°
2026-05-06 22:30 3.90283 -73.83002 3377 ft 54 kts 12°
2026-05-06 22:31 3.90599 -73.82814 3376 ft 54 kts 63°
2026-05-06 22:31 3.90488 -73.82465 3369 ft 62 kts 144°
2026-05-06 22:31 3.90040 -73.82496 3364 ft 67 kts 178°
2026-05-06 22:31 3.89541 -73.82363 3307 ft 88 kts 159°
2026-05-06 22:32 3.88909 -73.82226 3350 ft 93 kts 165°
2026-05-06 22:32 3.88245 -73.82034 3320 ft 103 kts 156°
2026-05-06 22:32 3.87590 -73.81740 3330 ft 103 kts 151°
2026-05-06 22:32 3.86923 -73.81426 3265 ft 110 kts 156°
2026-05-06 22:33 3.86400 -73.81557 3649 ft 77 kts 233°
2026-05-06 22:33 3.86543 -73.82027 3546 ft 100 kts 339°
2026-05-06 22:33 3.87235 -73.82183 3514 ft 101 kts 356°
2026-05-06 22:33 3.87969 -73.82242 3359 ft 114 kts 360°
2026-05-06 22:34 3.88758 -73.82217 3301 ft 108 kts 11°
2026-05-06 22:34 3.89448 -73.82071 3335 ft 93 kts 18°
2026-05-06 22:34 3.90050 -73.81918 3334 ft 88 kts 11°
2026-05-06 22:34 3.90689 -73.81906 3236 ft 94 kts
2026-05-06 22:35 3.91223 -73.81678 3271 ft 91 kts 78°
2026-05-06 22:35 3.91017 -73.81190 3544 ft 78 kts 129°
2026-05-06 22:35 3.90447 -73.81060 3566 ft 94 kts 176°
2026-05-06 22:35 3.89764 -73.81046 3487 ft 104 kts 175°
2026-05-06 22:36 3.89609 -73.81047 3443 ft 106 kts 178°
2026-05-06 22:36 3.89312 -73.81062 3368 ft 109 kts 181°
2026-05-06 22:36 3.88572 -73.81072 3309 ft 99 kts 176°
2026-05-06 22:37 3.87928 -73.81039 3337 ft 85 kts 170°
2026-05-06 22:37 3.87441 -73.81007 3435 ft 64 kts 168°
2026-05-06 22:37 3.86954 -73.80927 3309 ft 89 kts 161°
2026-05-06 22:37 3.86598 -73.80537 3351 ft 77 kts 99°
2026-05-06 22:38 3.86663 -73.80029 3333 ft 75 kts 54°
2026-05-06 22:38 3.87076 -73.79720 3324 ft 74 kts 20°
2026-05-06 22:38 3.87592 -73.79597 3321 ft 76 kts 13°
2026-05-06 22:38 3.88138 -73.79501 3324 ft 85 kts 12°
2026-05-06 22:39 3.88756 -73.79389 3327 ft 94 kts 13°
2026-05-06 22:39 3.89405 -73.79212 3325 ft 99 kts 25°
2026-05-06 22:39 3.90049 -73.78922 3314 ft 102 kts 27°
2026-05-06 22:39 3.90707 -73.78619 3296 ft 103 kts 28°
2026-05-06 22:40 3.91350 -73.78325 3273 ft 99 kts 27°
2026-05-06 22:40 3.91974 -73.78046 3264 ft 96 kts 26°
2026-05-06 22:40 3.92581 -73.77779 3259 ft 93 kts 26°
2026-05-06 22:40 3.93174 -73.77511 3259 ft 91 kts 26°
2026-05-06 22:41 3.94322 -73.76992 3258 ft 90 kts 26°
2026-05-06 22:41 3.94894 -73.76733 3259 ft 89 kts 26°
2026-05-06 22:41 3.95460 -73.76476 3261 ft 89 kts 26°
2026-05-06 22:42 3.96033 -73.76219 3258 ft 90 kts 26°
2026-05-06 22:42 3.96611 -73.75954 3257 ft 92 kts 27°
2026-05-06 22:42 3.97196 -73.75681 3255 ft 93 kts 26°
2026-05-06 22:42 3.97790 -73.75399 3250 ft 94 kts 26°
2026-05-06 22:43 3.98391 -73.75108 3242 ft 95 kts 26°
2026-05-06 22:43 3.98984 -73.74817 3232 ft 95 kts 26°
2026-05-06 22:43 3.99522 -73.74445 3235 ft 93 kts 47°
2026-05-06 22:43 3.99965 -73.73964 3230 ft 93 kts 46°
2026-05-06 22:44 4.00425 -73.73493 3231 ft 93 kts 46°
2026-05-06 22:44 4.00877 -73.73039 3240 ft 92 kts 46°
2026-05-06 22:44 4.01332 -73.72587 3247 ft 92 kts 45°
2026-05-06 22:44 4.01815 -73.72165 3262 ft 91 kts 41°
2026-05-06 22:45 4.02314 -73.71762 3272 ft 91 kts 37°
2026-05-06 22:45 4.02843 -73.71396 3262 ft 94 kts 36°
2026-05-06 22:45 4.03389 -73.71022 3251 ft 95 kts 36°
2026-05-06 22:45 4.03932 -73.70641 3247 ft 95 kts 37°
2026-05-06 22:46 4.04474 -73.70242 3239 ft 95 kts 38°
2026-05-06 22:46 4.05010 -73.69846 3230 ft 95 kts 38°
2026-05-06 22:46 4.05533 -73.69424 3222 ft 95 kts 40°
2026-05-06 22:46 4.06038 -73.69003 3222 ft 93 kts 40°
2026-05-06 22:47 4.06524 -73.68587 3177 ft 92 kts 41°
2026-05-06 22:47 4.07027 -73.68182 3112 ft 91 kts 39°
2026-05-06 22:47 4.07509 -73.67788 3077 ft 89 kts 40°
2026-05-06 22:47 4.07989 -73.67373 2963 ft 93 kts 43°
2026-05-06 22:48 4.08484 -73.66931 2832 ft 97 kts 45°
2026-05-06 22:48 4.08965 -73.66444 2720 ft 96 kts 44°
2026-05-06 22:48 4.09444 -73.66002 2732 ft 91 kts 40°
2026-05-06 22:48 4.09941 -73.65595 2740 ft 90 kts 37°
2026-05-06 22:49 4.10447 -73.65243 2747 ft 90 kts 35°
2026-05-06 22:49 4.10986 -73.64897 2742 ft 90 kts 29°
2026-05-06 22:49 4.11557 -73.64665 2742 ft 88 kts 18°
2026-05-06 22:49 4.12144 -73.64505 2697 ft 87 kts 15°
2026-05-06 22:50 4.12739 -73.64338 2628 ft 88 kts 14°
2026-05-06 22:50 4.13323 -73.64144 2437 ft 87 kts 26°
2026-05-06 22:50 4.13818 -73.63802 2217 ft 84 kts 37°
2026-05-06 22:50 4.14240 -73.63444 2095 ft 80 kts 36°
2026-05-06 22:51 4.14692 -73.63077 1915 ft 88 kts 37°
2026-05-06 22:51 4.15158 -73.62700 1751 ft 82 kts 37°
2026-05-06 22:51 4.15587 -73.62350 1633 ft 78 kts 37°
2026-05-06 22:51 4.16007 -73.62012 1543 ft 77 kts 36°
2026-05-06 22:52 4.16409 -73.61684 1449 ft 68 kts 39°
2026-05-06 22:52 4.16766 -73.61398 1437 ft 75 kts 38°
2026-05-06 22:52 4.17189 -73.61047 1572 ft 78 kts 35°
2026-05-06 22:52 4.17590 -73.60688 1763 ft 75 kts 38°
2026-05-06 22:53 4.17990 -73.60339 1918 ft 77 kts 36°
2026-05-06 22:53 4.18408 -73.59986 2073 ft 80 kts 38°
2026-05-06 22:53 4.18756 -73.59532 2214 ft 86 kts 84°
2026-05-06 22:53 4.18490 -73.58974 2329 ft 94 kts 141°
2026-05-06 22:54 4.17863 -73.58964 2442 ft 97 kts 218°
2026-05-06 22:54 4.17312 -73.59361 2592 ft 96 kts 216°
2026-05-06 22:54 4.16749 -73.59750 2660 ft 98 kts 216°
2026-05-06 22:54 4.16156 -73.60103 2684 ft 100 kts 206°
2026-05-06 22:55 4.15549 -73.60452 2717 ft 100 kts 211°
2026-05-06 22:55 4.14951 -73.60796 2760 ft 96 kts 205°
2026-05-06 22:55 4.14335 -73.61078 2724 ft 96 kts 203°
2026-05-06 22:55 4.13733 -73.61340 2680 ft 93 kts 201°
2026-05-06 22:56 4.13252 -73.61762 2569 ft 90 kts 245°
2026-05-06 22:56 4.13287 -73.62328 2502 ft 81 kts 301°
2026-05-06 22:56 4.13583 -73.62816 2353 ft 80 kts 303°
2026-05-06 22:56 4.13871 -73.63274 2166 ft 79 kts 313°
2026-05-06 22:57 4.14340 -73.63422 2053 ft 71 kts 14°
2026-05-06 22:57 4.14745 -73.63088 1887 ft 83 kts 45°
2026-05-06 22:57 4.15168 -73.62692 1756 ft 84 kts 38°
2026-05-06 22:57 4.15616 -73.62327 1645 ft 80 kts 37°
2026-05-06 22:58 4.16044 -73.61980 1524 ft 78 kts 37°
2026-05-06 22:58 4.16447 -73.61655 1449 ft 66 kts 38°
2026-05-06 22:58 4.16758 -73.61400 1437 ft 46 kts 41°
2026-05-06 22:58 4.16910 -73.61280 1433 ft 21 kts 38°
2026-05-06 22:59 4.16985 -73.61237 1430 ft 6 kts 358°
2026-05-06 22:59 4.17025 -73.61269 1433 ft 3 kts 313°
2026-05-06 22:59 4.17026 -73.61271 1433 ft 0 kts 312°
2026-05-06 23:00 4.17030 -73.61276 1433 ft 2 kts 307°
2026-05-06 23:00 4.17038 -73.61295 1434 ft 4 kts 248°
2026-05-06 23:00 4.17006 -73.61322 1436 ft 7 kts 218°
2026-05-06 23:01 4.16956 -73.61364 1437 ft 10 kts 221°
2026-05-06 23:01 4.16898 -73.61411 1439 ft 5 kts 218°
2026-05-06 23:01 4.16854 -73.61446 1441 ft 9 kts 218°
2026-05-06 23:01 4.16813 -73.61486 1442 ft 5 kts 253°
2026-05-06 23:02 4.16831 -73.61523 1444 ft 6 kts 307°
2026-05-06 23:02 4.16833 -73.61524 1444 ft 0 kts 306°
2026-05-06 23:02 4.16832 -73.61524 1444 ft 0 kts 306°